Regional Weather Roundup
Issued by NWS

Home | Current Version | Previous Version | Graphics & Text | Print | Product List | Glossary On
Versions: 1 2 3 4 5 6 7 8 9 10 11 12 13 14 15 16 17 18 19 20 21 22 23 24 25 26 27 28 29 30 31 32 33 34 35 36 37 38 39 40 41 42 43 44 45 46 47 48 49 50
000
ASUS43 KOAX 280502
RWRNE

WEATHER ROUNDUP FOR NEBRASKA
NATIONAL WEATHER SERVICE OMAHA NE
1200 AM CDT FRI JUL 28 2017

NOTES: SATELLITE DATA IS BEING USED TO AUGMENT CLOUD COVER ABOVE
       12000 FEET.
       "FAIR" INDICATES FEW OR NO CLOUDS BELOW 12,000 FEET WITH NO
       SIGNIFICANT WEATHER AND/OR OBSTRUCTIONS TO VISIBILITY.


NEZ001>004-019>022-054>056-280600-
NEBRASKA PANHANDLE

CITY           SKY/WX    TMP DP  RH WIND       PRES   REMARKS
SCOTTSBLUFF    CLOUDY    66  62  87 SE13      30.04F
ALLIANCE       CLOUDY    65  62  90 MISG      30.09R
CHADRON        LGT RAIN  62  58  86 E12       30.06F
GORDON         LGT RAIN  65  59  81 E9        30.10F
KIMBALL        CLOUDY    66  63  90 S15       30.12R
SIDNEY         CLOUDY    63  60  90 SE16      30.10F
$$

NEZ057>060-069>072-079>082-280600-
SOUTHWEST NEBRASKA

CITY           SKY/WX    TMP DP  RH WIND       PRES   REMARKS
NORTH PLATTE   CLOUDY    67  60  78 SE8       30.06F
IMPERIAL       CLOUDY    72  57  59 E13       30.10R
LEXINGTON      CLEAR     69  63  82 E5        30.09S
MCCOOK         PTCLDY    68  60  75 E7        30.07S
OGALLALA       TSTM      67  64  87 S9        30.09F
$$

NEZ005>010-023>029-035>040-094-280600-
NORTH CENTRAL NEBRASKA

CITY           SKY/WX    TMP DP  RH WIND       PRES   REMARKS
VALENTINE      CLOUDY    73  57  57 SE9       30.07S
AINSWORTH      CLOUDY    69  62  79 SE7       30.09S
BROKEN BOW     CLOUDY    67  61  81 SE5       30.09R
O`NEILL        CLOUDY    70  64  79 SE5       30.08S
ORD            MOCLDY    68  62  81 CALM      30.06S
THEDFORD       CLOUDY    71  61  71 SE9       30.09F
$$

NEZ041-046>049-061>064-073>077-083>087-280600-
SOUTH CENTRAL NEBRASKA

CITY           SKY/WX    TMP DP  RH WIND       PRES   REMARKS
GRAND ISLAND   CLEAR     67  66  97 CALM      30.08R
AURORA         CLEAR     65  64  98 CALM      30.07R
HASTINGS       CLEAR     68  63  84 E3        30.08R
HEBRON         CLEAR     68  65  92 CALM      30.04S
HOLDREGE       CLEAR     65  62  91 E6        30.08S
KEARNEY        CLEAR     66  63  90 E5        30.08S
YORK           CLEAR     64  64 100 CALM      30.06R
$$

NEZ011>018-030>034-042>045-280600-
NORTHEAST NEBRASKA

CITY           SKY/WX    TMP DP  RH WIND       PRES   REMARKS
NORFOLK        PTCLDY    65  61  87 CALM      30.06R
ALBION         PTCLDY    67  65  94 CALM      30.07S
BLAIR          CLOUDY    71  65  81 NE5       30.03S
COLUMBUS       MOCLDY    68  65  90 CALM      30.05S
FREMONT        PTCLDY    69  65  87 CALM      30.04R
TEKAMAH        MOCLDY    67  64  90 N6        30.02R
WAYNE          PTCLDY    65  65  99 CALM      30.05S
$$

NEZ050>053-065>068-078-088>093-280600-
SOUTHEAST NEBRASKA

CITY           SKY/WX    TMP DP  RH WIND       PRES   REMARKS
LINCOLN        CLEAR     71  64  78 CALM      30.03R
OMAHA EPPLEY   CLOUDY    68  64  87 CALM      30.01S
BEATRICE       CLEAR     67  65  92 CALM      30.02F
FALLS CITY     CLEAR     71  65  81 N3        29.99S
NEBRASKA CITY  CLEAR     69  69  99 CALM      30.01S
PLATTSMOUTH    CLEAR     70  63  78 NE5       30.02S
$$

NEZ044-045-051>053-067-280600-
OMAHA AREA

CITY           SKY/WX    TMP DP  RH WIND       PRES   REMARKS
OMAHA EPPLEY   CLOUDY    68  64  87 CALM      30.01S
BLAIR          CLOUDY    71  65  81 NE5       30.03S
FREMONT        PTCLDY    69  65  87 CALM      30.04R
MILLARD        CLOUDY    72  67  83 CALM      30.02R
OFFUTT AFB     CLOUDY    71  64  81 NE6       30.01S
PLATTSMOUTH    CLEAR     70  63  78 NE5       30.02S
WAHOO          FAIR      67  65  94 N5        30.04R
$$




USA.gov is the U.S. government's official web portal to all federal, state and local government web resources and services.